Location: Holyhead Bay
(53.3667°N, 4.6667°W)
Time: 21:45:24
(UTC+00:00)

Cosmos 1408 Rocket - Pass Details

Date: 16 April 2021
Orbit: 601 x 631 km, 82.6° (Epoch: 16 May)

Event Time Altitude Azimuth Distance (km) Brightness Sun altitude
Rises 23:03:51 0° 344° (NNW) 2,866 8.4 -24.2°
Reaches altitude 10° 23:06:08 10° 338° (NNW) 1,958 7.2 -24.3°
Maximum altitude 23:10:14 44° 267° (W) 844 4.3 -24.5°
Enters shadow 23:10:24 44° 260° (W) 847 4.2 -24.5°
